Simultaneous Nadir Overpasses (SNOs) Predictions

Prediction of SNOs between LANDSAT-8 and METOP-B Satellite Orbit:

Table of predicted SNOs for the next 14.0 days since TLE Epoch: 5/18/2024
Index Date (LANDSAT-8) Time (LANDSAT-8) Lat,Lon (LANDSAT-8) SZA (LANDSAT-8 ) Date (METOP-B) Time (METOP-B) Lat,Lon (METOP-B) SZA (METOP-B ) Distance(km) Time Diff (sec)
1 05/18/2024 11:43:47 81.33, 46.59 64.07 05/18/2024 11:42:54 81.32, 46.40 64.03 3.23 53
2 05/18/2024 12:33:13 -81.34,-145.49 115.90 05/18/2024 12:33:33 -81.33,-145.63 115.91 2.58 20
3 05/21/2024 07:18:01 81.33, 113.10 63.50 05/21/2024 07:17:08 81.33, 113.24 63.49 2.33 53
4 05/21/2024 08:07:28 -81.33, -79.32 116.52 05/21/2024 08:07:48 -81.34, -79.14 116.49 3.23 20
5 05/24/2024 02:52:14 81.33, 179.53 62.96 05/24/2024 02:51:23 81.33, 179.51 62.93 0.64 51
6 05/24/2024 03:41:41 -81.33, -12.87 117.06 05/24/2024 03:42:03 -81.33, -12.84 117.04 0.82 22
7 05/26/2024 22:26:25 81.32,-114.13 62.44 05/26/2024 22:25:36 81.33,-114.03 62.44 1.73 49
8 05/26/2024 23:15:51 -81.34, 53.86 117.51 05/26/2024 23:16:15 -81.34, 54.05 117.48 3.19 24
9 05/29/2024 18:00:35 81.33, -47.51 62.02 05/29/2024 17:59:49 81.33, -47.37 62.01 2.37 46



Historial Predications of SNOs between LANDSAT-8 and METOP-B
